TimeCST,TemperatureF,Dew PointF,Humidity,Sea Level PressureIn,VisibilityMPH,Wind Direction,Wind SpeedMPH,Gust SpeedMPH,PrecipitationIn,Events,Conditions,WindDirDegrees,DateUTC
12:33 AM,50.0,46.9,89,29.83,10.0,SSW,12.7,-,N/A,,Overcast,200,2013-01-11 06:33:00
12:52 AM,50.0,46.9,89,29.83,10.0,SSW,13.8,-,N/A,,Overcast,210,2013-01-11 06:52:00
1:04 AM,50.0,46.0,86,29.83,10.0,SSW,17.3,-,N/A,,Overcast,210,2013-01-11 07:04:00
1:52 AM,50.0,46.0,86,29.83,10.0,SSW,13.8,-,N/A,,Overcast,200,2013-01-11 07:52:00
2:52 AM,48.9,46.0,90,29.85,10.0,SSW,11.5,-,N/A,,Overcast,210,2013-01-11 08:52:00
3:52 AM,48.9,46.0,90,29.85,10.0,SSW,15.0,-,N/A,,Overcast,210,2013-01-11 09:52:00
4:52 AM,48.0,45.0,89,29.82,10.0,South,8.1,-,N/A,,Mostly Cloudy,180,2013-01-11 10:52:00
5:52 AM,46.9,44.1,90,29.83,10.0,South,10.4,-,N/A,,Scattered Clouds,190,2013-01-11 11:52:00
6:52 AM,45.0,43.0,93,29.83,10.0,SSE,10.4,-,N/A,,Clear,160,2013-01-11 12:52:00
7:52 AM,46.9,44.1,90,29.82,10.0,SSE,13.8,-,N/A,,Clear,160,2013-01-11 13:52:00
8:52 AM,48.0,44.1,86,29.83,10.0,South,17.3,-,N/A,,Clear,170,2013-01-11 14:52:00
9:52 AM,52.0,46.0,80,29.81,10.0,South,17.3,-,N/A,,Clear,170,2013-01-11 15:52:00
10:52 AM,55.0,46.0,72,29.81,10.0,South,20.7,29.9,N/A,,Clear,170,2013-01-11 16:52:00
11:52 AM,60.1,46.0,60,29.77,10.0,South,20.7,31.1,N/A,,Clear,190,2013-01-11 17:52:00
12:52 PM,64.0,45.0,50,29.74,10.0,South,24.2,29.9,N/A,,Clear,190,2013-01-11 18:52:00
1:52 PM,63.0,43.0,48,29.74,10.0,SSW,25.3,33.4,N/A,,Clear,200,2013-01-11 19:52:00
2:52 PM,64.9,43.0,45,29.73,10.0,South,23.0,28.8,N/A,,Clear,180,2013-01-11 20:52:00
3:52 PM,64.0,42.1,45,29.71,10.0,South,19.6,-,N/A,,Clear,170,2013-01-11 21:52:00
4:52 PM,63.0,42.1,46,29.72,10.0,South,12.7,-,N/A,,Clear,170,2013-01-11 22:52:00
5:52 PM,62.1,41.0,46,29.73,10.0,South,17.3,-,N/A,,Clear,180,2013-01-11 23:52:00
6:52 PM,61.0,42.1,50,29.74,10.0,South,19.6,27.6,N/A,,Clear,170,2013-01-12 00:52:00
7:52 PM,57.9,43.0,58,29.75,10.0,South,16.1,-,N/A,,Clear,170,2013-01-12 01:52:00
8:52 PM,57.0,43.0,59,29.78,10.0,South,15.0,-,N/A,,Clear,170,2013-01-12 02:52:00
9:52 PM,55.9,44.1,64,29.79,10.0,South,15.0,-,N/A,,Clear,170,2013-01-12 03:52:00
10:52 PM,55.0,44.1,67,29.80,10.0,South,15.0,-,N/A,,Clear,170,2013-01-12 04:52:00
11:52 PM,55.0,44.1,67,29.79,10.0,South,15.0,-,N/A,,Clear,170,2013-01-12 05:52:00